Timeline UpdatesTrip UpdatesNews PostsPvt PostsTravel TipsAdmin PostsConv PostsFollowed PostsChat RequestsBlog PostsPNR Posts

Disclaimer
Search
 
 
Thu Jul 24, 2014 07:40:25 ISTHomeTrainsΣChainsAtlasPNRForumGalleryNewsFAQTripsMembersLoginFeedback
No Recent News for this Train
Other Trains in the News **new
Latest...
.
Tue Sep 03, 2013 (07:04PM)
⇐ Return Journey: Train# 15051

15052/Purvanchal Express (via Narkatiaganj)

Jul 01 2013 (5:19PM)
Change Departure Station:
Change Arrival Station:
Post a Train Travel TipPost a Train Travel Tip **new
Post a Comment/Question/Picture/VideoPost a Comment/Question/Picture/Video
Pantry/Catering
✕ NO Pantry Car
✕ NO Catering
RSA - Rake Sharing
15047/15048/15049/15050/15051/15052 Purvanchal Express have RSA with each other.
Rake/Coach Composition
Loco[WADM3/WAP4],SLR,UR,UR,S1,S2,S3,S4,S5,S6,S7,S8,S9,S10,S11,S12,B1,A1,UR,UR,SLR
Loco
GKP-BJU: GD WDM-3A BJU-KOAA: HWH WAP-4
News    PNR    Forum    Time-Table    Availability    Fare Chart    Map    Arr/Dep History    Trips    Gallery    ΣChains    X/O    Timeline    
Travel Time: 18h 15m    21 halts    Distance: 875 km    Avg Speed: 47 km/hr
Type: Mail/Express
Zone: NER/North Eastern
Departs @ 10:10 (Avg 18m late)
Platform# ???
    T  
Gorakhpur Junction/GKP 
Arrives @ 04:25 +1 night (Avg 1h 32m late)
Platform# ???
     F 
Kolkata Chitpur/KOAA 

21 halts. 172 intermediate Stations between Gorakhpur Junction and Kolkata Chitpur

Hide intermediate Stations  Show Old Time-Table

#CodeStation NameX/OArrivesAvgDepartsAvgHaltPFDay#KmSpeedElevZoneAddress
1GKP»Gorakhpur Junction (10)»  -10:10+18--10.05484mNERGorakhpur 273001, Uttar Pradesh
1.1GKPEGorakhpur East Lobby  10:10-10:10-  10.1 5484mNERGorakhpur, Uttar Pradesh
1.2GKCGorakhpur Cantt. (3)  10:14-10:14-  13.6 5485mNERGorakhpur-273001, Uttar Pradesh
1.3UNLAUnaula  10:22-10:22-  110.8 5484mNERGorakhpur, Uttar Pradesh
2PPCPipraich  10:31+4810:33+482m--118.94485mNERGorakhpur Bypass, Uttar Pradesh
2.1MUUAMahuawa Khurd  10:43-10:43-  126.3 4488mNERState Highway 64, Uttar Pradesh
2.2BBWBodarwar  10:49-10:49-  130.6 4488mNERState Highway 64, Uttar Pradesh
3CPJKaptanganj JunctionX  11:00+4511:05+465m--138.74389mNERCaptainganj, Uttar Pradesh
3.1KSNRKhushal Nagar  11:15-11:15-  146.1 4389mNERGhughli Bazar, Uttar Pradesh
3.2GHGhughuliX  11:26-11:26-  153.6 4392mNERGhughli Bazar, Uttar Pradesh
4SBZSiswa Bazar  11:42+3611:44+382m--165.24494mNERSiswa Bazar, Uttar Pradesh
4.1GRRGGurli RamgarhwaX  11:50-11:50-  169.7 44100mNERGhughli Bazar, Uttar Pradesh
4.2KZAKhada  12:03-12:03-  179.4 4498mNERKhadda Katai Bharpurva Bandh, Uttar Pradesh
4.3PNYAPaniahwa (2)  12:13-12:13-  186.1 4496mNERPaniyahawa Railway Station, Uttar Pradesh
4.4VKNRValmikinagar Road (1)X  12:31-12:31-  199.2 44100mECRBagha, Bihar
4.5AWSAwasani  12:36-12:36-  1103.4 4494mECRBagaha, Bihar
5BUGBagaha (2)  12:43+5612:45+572m--1108.35593mECRBagaha, Bihar
5.1KPBKharpokhra  12:54-12:54-  1116.9 5597mECRChowtkipatti, Bihar
5.2BRUBhairoganj  13:04-13:04-  1125.8 55100mECRBhairoganj, Bihar
5.3HIRHarinagar  13:13-13:13-  1134.0 5597mECRRamnagar, Bihar
5.4CAMUChamua  13:22-13:22-  1142.1 5593mECRChamua Halt, Bihar
6NKENarkatiaganj Junction (3)  13:30+1:1213:35+1:165m--1149.56189mECRNarkatiaganj, Bihar
6.1NRKGNarkatia Junction  13:35-13:35-  1149.6 6189mECRNarkatiaganj, Bihar
6.2MSHWMusharwa Halt  13:41-13:41-  1156.0 6182mECRMusharwa Halt, Bihar
6.3SAHISathi  13:46-13:46-  1160.4 6184mECRParoraha, Bihar
6.4RSWNRameshwar Nagar Halt  13:49-13:49-  1164.1 6178mECRRameshwar, Bihar
6.5CAIChanpatia  13:54-13:54-  1169.4 6180mECRSikta-Mainatad Rd, Bihar
6.6KUMBKumarbagh  14:02-14:02-  1177.1 6181mECRKumarbagh, Bihar
6.7PJPIParjapati  14:09-14:09-  1183.7 6177mECRParjapati, Bihar
7BTHBettiah (2)  14:11+1:1214:13+1:172m--1186.25179mECRBettiah, Bihar
7.1MJLMajhowliaX  14:25-14:25-  1196.1 5176mECRVikash Village, Bihar
7.2PRSNParsa Nagar Halt  14:33-14:33-  1203.4 5174mECRParsa Nagar, Bihar
8SGLSagauli (3)  14:40+1:1214:42+1:152m--1209.07773mECRSugauli, Bihar
8.1SRASemra  14:49-14:49-  1218.1 7772mECRSemra Tola Bhola, Bihar
8.2CHAHChailaha Halt  14:56-14:56-  1226.4 7773mECRChailaha, Bihar
9BMKIBapudham Motihari (2)  14:58+1:2215:03+1:235m--1229.56472mECRMotihari, Bihar
9.1MKIMotihari (2)  15:03-15:03-  1229.6 6473mECRMotihari, Bihar
9.2MCOMotihari Court (1)X  15:06-15:06-  1232.4 6474mECRMotihari Court, Bihar
9.3JDRJiwdhara (1)  15:11-15:11-  1238.2 6470mECRJiwdhara, Bihar
9.4BGARBangari  15:16-15:16-  1243.9 6470mECRBangari, Bihar
9.5KPCMKuwarchintawanpur Halt  15:19-15:19-  1246.7 6465mECRRamgarh, Bihar
9.6PPAPipra (2)  15:24-15:24-  1251.6 6469mECRNational Highway 28, Bihar
9.7KXRKuria  15:27-15:27-  1255.4 6468mECRKuria, Bihar
10CAAChakia (1)  15:33+1:2415:35+1:242m11261.62666mECRChakia, Bihar
10.1HRNGHarpur Nag Halt  15:46-15:46-  1266.3 2667mECRNational Highway 28, Bihar
10.2MAIMehsi (1)  15:55-15:55-  1270.3 2664mECRMehsi, Bihar
10.3MHLMahwalX  16:02-16:02-  1273.4 2663mECRMuzaffarpur, Bihar
10.4MTRMotipur (1)  16:25-16:25-  1283.6 2662mECRRatanpura, Bihar
10.5NRVNariyar  16:37-16:37-  1288.9 2659mECRNariyaar, Bihar
10.6PPRHPiprahan Halt  16:46-16:46-  1292.8 2660mECRPiprahan, Bihar
10.7KTIKanti  16:56-16:56-  1297.0 2659mECRKanti, Bihar
10.8KVCKaparpura  17:03-17:03-  1300.2 2659mECRNational Highway 28, Bihar
11MFPMuzaffarpur Junction (6)X  17:25+2:3117:30+2:355m31309.76557mECRMuzaffarpur, Bihar
11.1NRPANarayanpur Anant (3)X  17:34-17:34-  1314.6 6556mECRMuzaffarpur, Bihar
11.2SLTSilaut  17:40-17:40-  1320.2 6557mECRMuzaffarpur, Bihar
11.3SIHOSiho  17:47-17:47-  1328.0 6553mECRNational Highway 28, Bihar
11.4DOLDholi (2)  17:53-17:53-  1334.9 6552mECRDistt. Muzaffarpur, Bihar
11.5DUBHDubaha  17:59-17:59-  1340.9 6555mECRDubha Station, Bihar
11.6VBHVishnupur Bathua Halt  18:02-18:02-  1344.5 6555mECRTajpur - Garhia - Pusa Road, Bihar
11.7KRBPKhudiram B Pusa  18:05-18:05-  1348.2 6552mECRDistt. Samastipur, Bihar
11.8KPGMKarpurigram (3)  18:12-18:12-  1355.6 6551mECRState Highway 49, Bihar
12SPJSamastipur Junction (9)X  18:18+2:2518:23+2:245m--1361.85355mECRSamastipur, Bihar
12.1BLRIBelari Halt  18:28-18:28-  1366.5 5351mECRMalti, Bihar
12.2UJPUjiarpur (2)  18:33-18:33-  1370.9 5351mECRSamastipur, Bihar
12.3NAZJNazirGanj  18:40-18:40-  1377.2 5351mECRNazirGanj, Bihar
12.4BSRABasarhia HaltX  18:44-18:44-  1380.8 5352mECRBasaria, Bihar
12.5DSSDalsingh Sarai (2)  18:49-18:49-  1385.0 5349mECR06278-221238, Bihar
12.6STJTSathajagatXO  18:54-18:54-  1389.6 5349mECRSathajagat, Bihar
12.7BCABachwara JunctionX  19:02-19:02-  1396.0 5349mECRBegusarai, Bihar
12.8TGATeghra (3)  19:12-19:12-  1405.0 5348mECRBegusarai, Bihar
13BJUBarauni Junction (9)X19:20+2:3319:45+2:3525m61412.44649mECRBegusarai, Bihar
13.1GHXGarharaX  19:50-19:50-  1416.4 4647mECRSimariya, Bihar
13.2SAEDinkar Gram Simaria (3)X  19:53-19:53-  1418.9 46228mECRBegusarai, Bihar
13.3BTPHChakia Thermal Halt  19:55-19:55-  1420.2 4646mECRNational Highway 31, Bihar
13.4RJORajendra Pul (1)  19:57-19:57-  1421.8 4649mECRSimaria, Bihar
13.5HTZHathidah Junction (2)X  20:01-20:01-  1425.0 4650mECRMusahari, Bihar
13.6RDUMRampur Dumra (3)X  20:06-20:06-  1428.8 4646mECRNational Highway 80, Bihar
13.7BRYABarhiya (3)  20:14-20:14-  1434.4 4647mECRBarahiya, Bihar
13.8GGSYGanga Sahay  20:17-20:17-  1437.0 4644mECRKIUL, Bihar
13.9DMRXDumri Halt (1)  20:19-20:19-  1438.6 4649mECRNational Highway 80, Bihar
13.10DJSDhurani Jwas Halt  20:24-20:24-  1441.9 4646mECRLakhisarai, Bihar
13.11MKBMankatha  20:26-20:26-  1443.9 4647mECRNational Highway 80, Bihar
13.12LKRLuckeesarai Junction (2)O  20:33-20:33-  1449.5 4652mECRLakhisarai, Bihar
13.13KIULKiul Junction (5)  20:35-20:35-  1450.8 4653mECRDist. Lakhisarai, Bihar
13.14MHLTMahesh Leta Halt  20:38-20:38-  1453.2 4652mECRKiul, Bihar
13.15LCKLakhochak Halt  20:40-20:40-  1454.4 4652mECRKiul, Bihar
13.16BSQPBansipur  20:41-20:41-  1455.2 4653mECRKiul, Bihar
13.17BLHRBalahapur Halt  20:42-20:42-  1455.8 4653mECRSH 18, Bihar
13.18MNPMananpur (2)  20:44-20:44-  1457.7 4657mECRState Highway 18, Bihar
13.19BFMBhalui  20:48-20:48-  1460.3 4656mECRState Highway 18, Bihar
13.20KDERKunder HaltX  20:58-20:58-  1468.0 4666mECRSH 18, Bihar
13.21JMUJamui (3)  21:11-21:11-  1478.1 4681mECRState Highway 72, Bihar
13.22CUXChauraX  21:14-21:14-  1480.7 4679mECRState Highway 18, Bihar
13.23GHRGidhaur (2)O  21:30-21:30-  1492.5 46106mECRState Highway 18, Bihar
13.24DPXDadpurX  21:39-21:39-  1499.7 46116mECRDadpur, Bihar
14JAJJhajha (4)X  21:45+1:3921:50+1:465m--1504.176143mECRJhajha, Bihar
14.1NRGONarganjo Halt (2)  21:56-21:56-  1512.1 76188mERState Highway 18, Bihar
14.2GHNGhorparan  21:59-21:59-  1515.5 76230mERSwami Vivekanand College Rd, Bihar
14.3STLSimultala (2)  22:05-22:05-  1522.8 76247mERSimultala, Bihar
14.4LHBLahabon (3)  22:13-22:13-  1533.0 76259mERDeoghar, Jharkhand
14.5TTNTulsitanr  22:19-22:19-  1540.3 76272mERDeoghar, Jharkhand
15JSMEJasidih Junction (5)X  22:25+1:5922:30+1:595m--1548.270271mERJasidih, Jharkhand
15.1KBQKumrabad RohiniX  22:36-22:36-  1554.6 70231mERKumrabad Rohi, Jharkhand
15.2SNQSankarpur  22:40-22:40-  1559.5 70242mERDeoghar, Jharkhand
15.3MUWMathurapur (2)  22:45-22:45-  1565.7 70261mERDeoghar, Jharkhand
15.4NPZNawapatra  22:50-22:50-  1571.4 70221mERDeoghar, Jharkhand
16MDPMadhupur Junction (4)  22:55+2:0822:58+2:103m--1577.383254mER06432-224478, Jharkhand
16.1JRWJoramow  23:05-23:05-  1587.2 83208mERBarrage on Ajoy River, Jharkhand
16.2MNCMadankata (2)X  23:09-23:09-  1592.6 83208mERBarrage on Ajoy River, Jharkhand
16.3VDSVidyasagar (2)X  23:16-23:16-  1601.5 83250mERJamtara, Jharkhand
16.4KEEKaseetar  23:23-23:23-  1611.2 83219mERJamtara, Jharkhand
16.5JMTJamtara (2)X  23:29-23:29-  1619.4 83201mERJamtara, Jharkhand
16.6BMBodmaX  23:35-23:35-  1628.5 83179mERChittaranjan, West Bengal
17CRJChittaranjan (3)  23:39+1:4023:41+1:402m21633.737182mERMihijam, Jharkhand
17.1RNPRRupnarayanpur (3)  23:48-23:48-  1638.2 37191mERChittaranjan, West Bengal
17.2SLSSalanpur (2)X  00:00-00:00-  2645.4 37156mERSalanpur Station, West Bengal
17.3STNSitarampur Junction (5)  00:08-00:08-  2650.0 37139mERG T Rd Before Asansol, West Bengal
17.4BCQBarachak Junction (4)X  00:14-00:14-  2653.7 37127mERdist - bardhaman, West Bengal
18ASNAsansol Junction (7)  00:22+1:5600:27+1:565m52658.882113mERDist - bardhaman, West Bengal
18.1ASNEAsansol EastX  00:28-00:28-  2660.4 82110mERAsansol, West Bengal
18.2KPKKalipahari (4)  00:31-00:31-  2664.1 82106mERBardhaman distt, West Bengal
18.3NMCNimcha  00:37-00:37-  2673.1 82106mERRaniganj, West Bengal
18.4RNGRaniGanj (4)X  00:40-00:40-  2676.9 8292mERRaniganj, West Bengal
18.5BQTBakhtarnagarX  00:44-00:44-  2681.4 8287mERKajora, West Bengal
18.6UDLAndal Junction (6)  00:46-00:46-  2684.2 8286mERAndal, West Bengal
18.7UDLEAndal East CabinX  00:47-00:47-  2686.2 8280mERAndal, West Bengal
18.8EOCAndal East Outer Cabin  00:47-00:47-  2686.6 8280mERAndal, West Bengal
18.9POLPinjrapol  00:50-00:50-  2690.4 8280mERDurgapur, West Bengal
18.10OYRWaria (4)  00:52-00:52-  2692.4 8272mERDurgapur, West Bengal
18.11DCOPDurgapur Coke Oven Plant  00:56-00:56-  2698.7 8278mERDurgapur, West Bengal
19DGRDurgapur (5)  00:58+2:5101:00+2:512m--2701.27271mERDurgapur, West Bengal
19.1RBHRajbandh  01:07-01:07-  2709.0 7272mERRajbandh Rail Station Rd, West Bengal
19.2PANPanagarh (4)  01:13-01:13-  2716.8 7270mERKaksa, West Bengal
19.3MNAEMankar (4)X  01:22-01:22-  2727.0 7265mERMankur, West Bengal
19.4PAJParaj (4)X  01:28-01:28-  2735.3 7252mERNational Highway 2, West Bengal
19.5GLIGalsi (4)  01:34-01:34-  2741.8 7247mERBardhaman, West Bengal
19.6INCIIshan Chandi Halt (2)  01:39-01:39-  2748.4 7243mERDist - Bardhaman, West Bengal
19.7KANKhana Junction (5)X  01:42-01:42-  2751.7 7242mERDist - Bardhaman, West Bengal
19.8TITTalit (4)  01:47-01:47-  2757.2 7237mERDist - Bardhaman, West Bengal
20BWNBarddhaman Junction (8)  01:53+2:5101:55+2:512m52764.86734mERDist - Barddhaman, West Bengal
20.1GRPGangpur (4)X  02:01-02:01-  2771.6 6729mERGangpur, West Bengal
20.2SKGSaktigarh (7)  02:06-02:06-  2776.7 6728mERSaktigarh, West Bengal
20.3PLAEPalsit (2)  02:09-02:09-  2780.3 6724mERPalsit, West Bengal
20.4RSLRRasulpur (2)  02:12-02:12-  2783.8 6730mERRasulpur - Kuchut Rd, West Bengal
20.5NMFNimo (2)  02:15-02:15-  2786.9 6724mERNimo, West Bengal
20.6MYMMemari (4)  02:17-02:17-  2789.8 6725mERMemari, West Bengal
20.7BGFBagila (2)  02:20-02:20-  2792.7 6722mERBagila, West Bengal
20.8DBPDebipur (2)  02:24-02:24-  2796.9 6722mERDebipur, West Bengal
20.9BOIBainchi (3)  02:28-02:28-  2801.6 6721mERDIST - HOOGHLY - 712134, West Bengal
20.10BCGMBainchigram (2)  02:30-02:30-  2804.2 6720mERDIST - HOOGHLY - 712135, West Bengal
20.11SLGSimlagarh (2)  02:32-02:32-  2806.0 6720mERSimlagarh, West Bengal
20.12PDAPundooah (3)  02:36-02:36-  2810.8 6718mERPandua, West Bengal
20.13KHNKhanyan (2)  02:41-02:41-  2816.3 6718mERKhanyan, West Bengal
20.14TLOTalandu (2)  02:46-02:46-  2821.5 6714mERTalandu - Sultangacha Rd, West Bengal
20.15MUGMagra (3)  02:49-02:49-  2825.3 6715mERMagra, West Bengal
20.16ADSTAdi Saptagram (2)X  02:52-02:52-  2828.7 6716mERHowrah, West Bengal
21BDCBandel Junction (7)  02:55+2:3002:57+2:292m--2832.02214mERdist - HOOGHLY, West Bengal
21.1HYGHooghly Ghat (2)  03:07-03:07-  2835.8 2217mERdist - Hooghly, West Bengal
21.2GFAEGarifa (2)  03:11-03:11-  2837.3 2215mERState Highway 1, West Bengal
22NHNaihati Junction (5)  03:20+1:3703:22+1:372m22840.43315mERdist - North 24 paraganas - 743165, West Bengal
22.1KNRKankinara (3)  03:27-03:27-  2843.3 33 ERState Highway 1, West Bengal
22.2JGDLJagadal (4)  03:30-03:30-  2845.1 3314mERState Highway 1, West Bengal
22.3SNRShyamnagar (4)  03:36-03:36-  2848.0 3316mERDist - North 24 paraganas, West Bengal
22.4IPIchhapur (4)  03:42-03:42-  2851.3 3312mERIchapur, West Bengal
22.5PTFPalta (4)  03:45-03:45-  2853.2 3312mERState Highway 1, West Bengal
22.6BPBarrackpore (5)  03:50-03:50-  2855.8 3312mERDist - 24 paraganas (N), West Bengal
22.7TGHTitagarh (4)  03:54-03:54-  2857.9 3310mERDIST - 24 Paraganas ( North ), West Bengal
22.8KDHKhardaha (4)  03:57-03:57-  2859.7 3311mERKolkata, West Bengal
22.9SEPSodpur (4)X  04:02-04:02-  2862.7 337mERKolkata, West Bengal
22.10AGPAgarpara (4)  04:06-04:06-  2864.5 3310mERDist - 24 paraganas ( north ), West Bengal
22.11BLHBelgharia (4)  04:10-04:10-  2867.0 339mERKolkata, West Bengal
22.12DDJDum Dum Junction (5)  04:18-04:18-  2871.5 3310mERKolkata - 700028, West Bengal
22.13PTKRPatipukur (1)  04:21-04:21-  2873.2 334mERKolkata, West Bengal
23KOAA•Kolkata Chitpur (5)•  04:25+1:32---2875.2-6mERKolkata, West Bengal
Scroll to Top
Scroll to Bottom